Change the Weather History Date:

Friday, October 4, 2013

  Actual Average (KYNG) Record (KYNG)
Temperature  
Mean Temperature 70 °F 55 °F  
Max Temperature 75 °F 65 °F 86 °F (1898)
Min Temperature 64 °F 45 °F 30 °F (1974)
Degree Days  
Heating Degree Days 0 11  
Month to date heating degree days 41  
Since 1 July heating degree days 224  
Cooling Degree Days 4 0  
Month to date cooling degree days 3  
Year to date cooling degree days 541  
Growing Degree Days 20 (Base 50)    
Moisture  
Dew Point 63 °F    
Average Humidity 81    
Maximum Humidity 93    
Minimum Humidity 64    
Precipitation  
Precipitation 0.00 in 0.09 in 1.62 in (1954)
Month to date precipitation 0.39  
Year to date precipitation 30.36  
Snow  
Snow 0.00 in 0.00 in - ()
Month to date snowfall 0.0  
Since 1 July snowfall 0.0  
Since 1 September snowfall 0.0  
Snow Depth -    
Sea Level Pressure  
Sea Level Pressure 30.04 in    
Wind  
Wind Speed 6 mph (SW)    
Max Wind Speed 12 mph    
Max Gust Speed -    
Visibility 9 miles    
Events      
T = Trace of Precipitation, MM = Missing Value Source: NWS Daily Summary

Daily Weather History Graph

Daily Weather History Graph

Search for Another Location

Airport or City:

Trip Planner

Search our weather history database for the weather conditions in past years. The results will help you decide how hot, cold, wet, or windy it might be!

Date:

Astronomy

Oct. 04, 2013 Rise Set
Actual Time 7:23 AM EDT 6:58 PM EDT
Civil Twilight 6:55 AM EDT 7:26 PM EDT
Nautical Twilight 6:23 AM EDT 7:58 PM EDT
Astronomical Twilight 5:50 AM EDT 8:31 PM EDT
Moon 6:57 AM EDT (10/4) 6:40 PM EDT (10/4)
Length of Visible Light 12h 31m
Length of Day
11h 35m
Waning Crescent, 0% of the Moon is Illuminated
Oct 4
Waning Crescent
Oct 4
New
Oct 11
First Quarter
Oct 18
Full
Oct 26
Last Quarter

Hourly Weather History & Observations

Time (EDT) Temp. Dew Point Humidity Pressure Visibility Wind Dir Wind Speed Gust Speed Precip Events Conditions
12:53 AM 66.9 °F 63.0 °F 87% 30.02 in 9.0 mi SSW 6.9 mph - N/A   Partly Cloudy
1:53 AM 66.0 °F 62.1 °F 87% 30.02 in 10.0 mi SSW 5.8 mph - N/A   Partly Cloudy
2:53 AM 66.0 °F 62.1 °F 87% 30.02 in 8.0 mi SSW 5.8 mph - N/A   Overcast
3:53 AM 66.0 °F 62.1 °F 87% 30.01 in 8.0 mi SSW 5.8 mph - N/A   Mostly Cloudy
4:53 AM 66.0 °F 62.1 °F 87% 30.03 in 7.0 mi SSW 4.6 mph - N/A   Scattered Clouds
5:53 AM 64.0 °F 62.1 °F 93% 30.03 in 5.0 mi SSW 3.5 mph - N/A   Clear
6:53 AM 66.0 °F 62.1 °F 87% 30.04 in 6.0 mi SSW 3.5 mph - N/A   Overcast
7:53 AM 66.0 °F 63.0 °F 90% 30.05 in 5.0 mi SW 5.8 mph - N/A   Mostly Cloudy
8:53 AM 69.1 °F 64.0 °F 84% 30.06 in 8.0 mi SSW 6.9 mph - N/A   Clear
9:53 AM 70.0 °F 64.0 °F 81% 30.05 in 10.0 mi SSW 9.2 mph - N/A   Scattered Clouds
10:53 AM 73.0 °F 64.9 °F 76% 30.05 in 10.0 mi SW 9.2 mph - N/A   Partly Cloudy
11:53 AM 75.0 °F 63.0 °F 66% 30.05 in 10.0 mi West 11.5 mph - N/A   Mostly Cloudy
12:53 PM 75.9 °F 63.0 °F 64% 30.05 in 10.0 mi WNW 8.1 mph - N/A   Scattered Clouds
1:53 PM 73.9 °F 63.0 °F 68% 30.04 in 10.0 mi West 9.2 mph - 0.00 in   Mostly Cloudy
2:53 PM 75.0 °F 63.0 °F 66% 30.04 in 10.0 mi WNW 4.6 mph - N/A   Mostly Cloudy
3:53 PM 72.0 °F 64.0 °F 76% 30.04 in 10.0 mi WSW 6.9 mph - 0.00 in   Overcast
4:53 PM 73.0 °F 62.1 °F 68% 30.03 in 10.0 mi SW 5.8 mph - N/A   Scattered Clouds
5:53 PM 73.0 °F 63.0 °F 71% 30.04 in 10.0 mi SW 3.5 mph - N/A   Clear
6:53 PM 69.1 °F 63.0 °F 81% 30.04 in 10.0 mi SW 3.5 mph - N/A   Clear
7:53 PM 68.0 °F 63.0 °F 84% 30.05 in 10.0 mi South 4.6 mph - N/A   Clear
8:53 PM 66.9 °F 63.0 °F 87% 30.05 in 10.0 mi SE 3.5 mph - N/A   Clear
9:53 PM 66.0 °F 63.0 °F 90% 30.06 in 9.0 mi Calm Calm - N/A   Partly Cloudy
10:53 PM 66.9 °F 63.0 °F 87% 30.06 in 7.0 mi South 3.5 mph - N/A   Partly Cloudy
11:53 PM 66.0 °F 63.0 °F 90% 30.07 in 7.0 mi Calm Calm - N/A   Clear